Location: Newark
(27.5900°N, 83.4900°E)
Time: 01:41:18
(UTC+00:00)

Hubble Space Telescope - Pass Details

Date: 14 December 2019
Orbit: 536 x 540 km, 28.5° (Epoch: 20 January)

Event Time Altitude Azimuth Distance (km) Brightness Sun altitude
Exits shadow 00:27:31 - 250° (WSW) 2,241 3.5 -9.0°
Reaches altitude 10° 00:28:41 10° 248° (WSW) 1,783 3.0 -8.8°
Maximum altitude 00:32:47 66° 166° (SSE) 583 1.1 -7.9°
Drops below altitude 10° 00:36:53 10° 84° (E) 1,786 4.5 -7.1°
Sets 00:39:09 0° 81° (E) 2,677 5.5 -6.6°
